sat.trackr.live / text

‹ back to catalog

STARLINK-4086

NORAD 52833 · 2022-062D

PAYLOAD ACTIVE UNKNOWN

§ Identity

Operator
Country
US
Launch date
2022-06-17
Launch site
AFETR
Launch vehicle
Mass (kg)
RCS (m²)

Purposes: comms

External: N2YO · Heavens-Above · Gunter

§ Orbital elements

Epoch: 2026-09-19T15:31:21.751392Z

Period
94.38 min
Inclination
53.1552°
Eccentricity
0.0003255
Mean motion
15.25782426 rev/d
Perigee alt
486.2 km
Apogee alt
490.7 km
Semi-major
6,866.6 km
B*
1.0319e-3
RAAN
235.6835°
Arg perigee
46.4765°
Mean anomaly
313.6503°
Rev number
23,516

§ Raw data

STARLINK-40861 52833U 22062D   26262.64677953  .00026461  00000+0  10319-2 0  99922 52833  53.1552 235.6835 0003255  46.4765 313.6503 15.25782426235163

JSON: /api/v1/satellites/52833 · /tle

For live sub-satellite position, see the globe view (requires WebGL).

§ Visibility from observer

Set your observer location to see the next 7 days of passes ≥ 10°. The values pass through the URL so the page stays shareable.

No JS? Fill the form by hand. The geolocation button needs JavaScript.